Miscellaneous Local Product
Issued by NWS North Platte, NE

Home | Current Version | Previous Version | Graphics & Text | Print | Product List | Glossary On
Versions: 1 2 3 4 5 6 7 8 9 10 11 12 13 14 15 16 17 18 19 20 21 22 23 24 25 26 27 28 29 30 31 32 33 34 35 36 37 38 39 40 41 42 43 44 45 46 47 48 49 50
091
AXUS43 KLBF 271010
MISLBF


WESTERN AND NORTH CENTRAL NEBRASKA HOURLY WEATHER ROUNDUP
NATIONAL WEATHER SERVICE NORTH PLATTE NE
500 AM CDT THU APR 27 2017

NOTE: "FAIR" INDICATES FEW OR NO CLOUDS BELOW 12,000 FEET WITH NO
SIGNIFICANT WEATHER AND/OR OBSTRUCTIONS TO VISIBILITY.

NOTE: STATIONS NOT REPORTING VARIABLES SUCH AS SKY/WEATHER OR
PRESSURE ARE PROVIDED BY RAWS AND APRS NETWORKS AND ARE NOT UNDER
NATIONAL WEATHER SERVICE QUALITY CONTROL.

...OBSERVATIONS IN AND NEAR THE EASTERN PANHANDLE OF NEBRASKA...

CITY           SKY/WX    TMP DP  RH WIND       PRES   REMARKS
PINE RIDGE     MOCLDY    27  25  92 CALM      29.65F
CHADRON        CLOUDY    30  27  88 NE6       29.63F WCI  24
ALLIANCE       PTCLDY    29  27  92 E7        29.60F WCI  22
SIDNEY         MOCLDY    38  36  92 SW8       29.60F WCI  32
CRESCENT LAKE    N/A     50  29  44 SE6         N/A
$$

...OBSERVATIONS IN NORTHERN NEBRASKA AND FAR SOUTHERN SOUTH DAKOTA...

CITY           SKY/WX    TMP DP  RH WIND       PRES   REMARKS
WINNER         FAIR      25  22  88 CALM      29.70S
VALENTINE      CLEAR     23  18  81 W5        29.68F WCI  17
THEDFORD       CLEAR     26  25  93 CALM      29.68S
AINSWORTH      CLEAR     28  27  95 W6        29.68S WCI  21
O`NEILL        CLEAR     29  26  88 W9        29.68F WCI  21
ORD            CLEAR     29  25  85 W7        29.67S WCI  22
BROKEN BOW     CLEAR     29  25  85 N3        29.68S
VALENTINE NWR    N/A     28  26  92 CALM        N/A
HALSEY           N/A     27  25  93 CALM        N/A
BUTTE            N/A     24  22  92 CALM        N/A
CHAMBERS         N/A     26  24  90 CALM        N/A
EWING            N/A     28  26  92 W6          N/A  WCI  22
$$

...OBSERVATIONS IN SOUTHWEST NEBRASKA AND FAR NORTHEAST COLORADO...

CITY           SKY/WX    TMP DP  RH WIND       PRES   REMARKS
HOLYOKE        FAIR      37  32  81 SE5       29.63S WCI  34
IMPERIAL       CLEAR     34  29  82 SE8       29.64F WCI  27
OGALLALA       PTCLDY    36  32  84 E6        29.64F WCI  32
NORTH PLATTE   CLEAR     32  30  92 E3        29.67F
MCCOOK         PTCLDY    31  28  89 NE3       29.67F
LEXINGTON      CLEAR     28  26  90 N5        29.68F WCI  23
STAPLETON        N/A     25  23  93 CALM        N/A
GOTHENBURG       N/A     35  29  78 CALM        N/A
CALLAWAY         N/A     29  27  91 CALM        N/A
$$

...OBSERVATIONS IN CENTRAL LINCOLN COUNTY AREA...

CITY           SKY/WX    TMP DP  RH WIND       PRES   REMARKS
N.P. AIRPORT   CLEAR     32  30  92 E3        29.67F
N.P. DOWNTOWN    N/A     35  30  83 CALM        N/A
N.P. SOUTHEAST   N/A     34  29  82 CALM        N/A
N.P. HILLCREST   N/A     34  30  85 CALM        N/A
$$

...SOME OBSERVATIONS FROM AROUND THE REGION...

CITY           SKY/WX    TMP DP  RH WIND       PRES   REMARKS
DENVER         CLOUDY    36  32  85 S8        29.57F WCI  30
LIMON          CLOUDY    31  31 100 CALM      29.62F
ASPEN          CLOUDY    33  32  96 CALM      29.66F
LARAMIE        FLURRIES  34  32  92 SW8       29.60S WCI  27
CASPER         LGT RAIN  38  35  89 SW7       29.55S WCI  33
CHEYENNE       CLOUDY    38  34  85 SW13      29.60F WCI  30
SCOTTSBLUFF    CLOUDY    38  35  89 E8        29.59F WCI  32
GRAND ISLAND   CLEAR     28  26  92 W8        29.69S WCI  20
OMAHA          CLOUDY    38  27  64 NW16      29.66R WCI  29
SIOUX FALLS    CLOUDY    31  26  82 NW18      29.64R WCI  19
PIERRE         CLOUDY    28  25  88 NW7       29.71S WCI  21
RAPID CITY     CLEAR     28  24  85 N9        29.65F WCI  19
BISMARCK       PTCLDY    31  24  75 N7        29.75S WCI  24
KANSAS CITY    CLOUDY    42  32  67 W10       29.67S
HILL CITY      CLEAR     29  27  92 CALM      29.70F
WICHITA        CLEAR     35  33  92 CALM      29.72F
DODGE CITY     CLEAR     38  33  82 S6        29.67F WCI  33
OKLAHOMA CITY  PTCLDY    39  38  96 CALM      29.75R
DALLAS         PTCLDY    49  45  86 E3        29.73F
AMARILLO       LGT RAIN  50  39  66 S16       29.71F
$$




USA.gov is the U.S. government's official web portal to all federal, state and local government web resources and services.